Location: Betra
(48.4113°N, 8.6634°E)
Time: 16:18:25
(UTC+00:00)

DELTA 2 R/B (1) - Pass Details

Date: 23 May 2024
Orbit: 788 x 801 km, 39.6° (Epoch: 16 June)

Event Time Altitude Azimuth Distance (km) Brightness Sun altitude
Exits shadow 02:07:03 12° 248° (WSW) 2,222 5.4 -11.7°
Maximum altitude 02:11:22 29° 192° (SSW) 1,401 4.4 -11.3°
Drops below altitude 10° 02:16:06 10° 133° (SE) 2,345 6.0 -10.8°
Sets 02:18:50 0° 123° (ESE) 3,271 6.9 -10.5°
